Location: Bauerbach
(50.4985°N, 10.3912°E)
Time: 00:53:52
(UTC+00:00)

Cosmos 2344 - Pass Details

Date: 13 January 2026
Orbit: 1196 x 3047 km, 63.3° (Epoch: 6 February)

Event Time Altitude Azimuth Distance (km) Brightness Sun altitude
Exits shadow 04:20:19 30° 333° (NNW) 2,037 4.4 -26.9°
Maximum altitude 04:21:50 32° 355° (N) 1,976 4.5 -26.7°
Drops below altitude 10° 04:28:53 10° 57° (ENE) 3,472 6.5 -25.5°
Sets 04:32:29 0° 68° (ENE) 4,653 7.5 -25.0°
